QPF
0.03 0.04 0.05 0.09 0.15 0.16 0.13 0.12 0.09 0.05 0.03 0.04 0.04 0.04 0.06 0.08 0.09 0.07 0.04 0.03 0.01 0.02 0.02 0.02 0.03 0.02 0.02 0.02 0.02 0.03 0.02 0.03 0.02 0.05 0.09 0.07 0.07 0.05 0.04 0.04 0.05 0.05 0.04 0.03 0.03 0.03 0.05 0.03 0.02
0.02 0.04 0.07 0.14 0.18 0.16 0.13 0.12 0.07 0.03 0.02 0.02 0.02 0.03 0.03 0.02 0.02 0.03 0.04 0.02 0.01 0.01 0.02 0.02 0.02 0.01 0.02 0.02 0.02 0.02 0.02 0.01 0.01 0.02 0.03 0.04 0.04 0.04 0.03 0.03 0.03 0.03 0.02 0.04 0.04 0.05 0.05 0.02 0.02
0.01 0.03 0.09 0.18 0.17 0.14 0.13 0.10 0.05 0.01 0.00 0.01 0.01 0.02 0.02 0.03 0.03 0.04 0.03 0.02 0.01 0.01 0.02 0.02 0.02 0.02 0.02 0.01 0.02 0.02 0.02 0.02 0.02 0.02 0.02 0.02 0.02 0.03 0.02 0.02 0.01 0.01 0.01 0.03 0.04 0.06 0.06 0.02 0.02
0.02 0.05 0.07 0.11 0.09 0.06 0.07 0.05 0.02 0.03 0.01 0.01 0.02 0.04 0.03 0.04 0.03 0.03 0.03 0.02 0.02 0.02 0.01 0.01 0.02 0.02 0.02 0.01 0.02 0.02 0.02 0.02 0.02 0.02 0.02 0.02 0.02 0.02 0.01 0.01 0.02 0.01 0.01 0.01 0.03 0.05 0.07 0.06 0.04
0.05 0.08 0.09 0.09 0.06 0.05 0.04 0.02 0.01 0.04 0.05 0.03 0.02 0.03 0.04 0.05 0.03 0.03 0.03 0.04 0.03 0.03 0.02 0.01 0.02 0.02 0.02 0.02 0.03 0.04 0.04 0.03 0.02 0.02 0.02 0.02 0.02 0.03 0.03 0.02 0.03 0.01 0.01 0.01 0.02 0.04 0.05 0.06 0.06
0.07 0.08 0.11 0.08 0.06 0.06 0.05 0.02 0.01 0.02 0.03 0.04 0.04 0.03 0.05 0.08 0.05 0.05 0.05 0.04 0.02 0.01 0.01 0.01 0.02 0.02 0.02 0.02 0.03 0.04 0.04 0.03 0.01 0.02 0.02 0.02 0.02 0.03 0.04 0.02 0.02 0.02 0.02 0.02 0.02 0.03 0.03 0.03 0.04
0.06 0.08 0.09 0.07 0.07 0.06 0.03 0.01 0.01 0.02 0.03 0.03 0.03 0.03 0.05 0.08 0.06 0.04 0.03 0.02 0.01 0.01 0.01 0.02 0.02 0.02 0.02 0.02 0.02 0.03 0.04 0.03 0.02 0.01 0.02 0.01 0.01 0.01 0.02 0.02 0.02 0.02 0.02 0.02 0.02 0.02 0.02 0.02 0.02
0.02 0.05 0.06 0.05 0.07 0.06 0.01 0.01 0.02 0.02 0.02 0.01 0.02 0.03 0.03 0.04 0.04 0.03 0.02 0.01 0.01 0.02 0.02 0.02 0.02 0.01 0.01 0.01 0.01 0.01 0.03 0.03 0.02 0.01 0.01 0.02 0.02 0.01 0.01 0.02 0.02 0.02 0.02 0.02 0.02 0.01 0.02 0.03 0.02
0.00 0.04 0.06 0.04 0.04 0.03 0.01 0.01 0.01 0.01 0.02 0.01 0.02 0.03 0.02 0.03 0.02 0.03 0.02 0.01 0.01 0.02 0.03 0.03 0.02 0.01 0.00 0.00 0.00 0.01 0.02 0.02 0.01 0.01 0.01 0.02 0.05 0.03 0.03 0.02 0.02 0.02 0.03 0.02 0.02 0.01 0.01 0.01 0.01
0.01 0.04 0.04 0.01 0.01 0.01 0.00 0.00 0.00 0.02 0.04 0.02 0.03 0.04 0.03 0.02 0.02 0.02 0.01 0.01 0.01 0.02 0.03 0.03 0.02 0.01 0.00 0.01 0.01 0.01 0.01 0.01 0.01 0.00 0.01 0.02 0.03 0.04 0.02 0.02 0.03 0.02 0.02 0.03 0.02 0.01 0.02 0.03 0.02
0.00 0.02 0.01 0.01 0.00 0.00 0.00 0.00 0.00 0.02 0.04 0.03 0.02 0.03 0.03 0.02 0.02 0.01 0.01 0.02 0.02 0.03 0.03 0.02 0.02 0.02 0.01 0.02 0.01 0.01 0.01 0.01 0.00 0.00 0.01 0.01 0.01 0.02 0.02 0.03 0.03 0.03 0.03 0.03 0.03 0.04 0.06 0.04 0.03
0.00 0.01 0.01 0.01 0.00 0.00 0.01 0.01 0.01 0.01 0.02 0.03 0.02 0.02 0.03 0.03 0.02 0.00 0.01 0.02 0.03 0.04 0.05 0.03 0.02 0.03 0.03 0.02 0.02 0.01 0.01 0.01 0.00 0.00 0.00 0.00 0.01 0.01 0.02 0.01 0.02 0.04 0.05 0.05 0.05 0.06 0.06 0.04 0.02
0.01 0.01 0.00 0.01 0.00 0.00 0.01 0.01 0.01 0.01 0.01 0.01 0.03 0.02 0.03 0.03 0.01 0.01 0.01 0.02 0.05 0.07 0.07 0.06 0.04 0.04 0.03 0.03 0.03 0.02 0.01 0.01 0.00 0.01 0.00 0.00 0.01 0.01 0.01 0.01 0.01 0.03 0.03 0.05 0.05 0.05 0.06 0.05 0.04
0.01 0.00 0.00 0.00 0.00 0.00 0.01 0.01 0.01 0.02 0.01 0.01 0.03 0.02 0.02 0.02 0.02 0.02 0.01 0.01 0.03 0.06 0.08 0.06 0.04 0.04 0.03 0.03 0.03 0.02 0.01 0.00 0.00 0.01 0.01 0.00 0.01 0.01 0.00 0.01 0.01 0.01 0.02 0.03 0.03 0.02 0.04 0.04 0.04
0.00 0.00 0.01 0.01 0.01 0.01 0.01 0.02 0.01 0.01 0.01 0.02 0.04 0.02 0.01 0.02 0.02 0.03 0.03 0.03 0.03 0.04 0.07 0.06 0.03 0.03 0.03 0.02 0.02 0.01 0.00 0.00 0.00 0.00 0.01 0.01 0.01 0.01 0.00 0.01 0.01 0.01 0.01 0.01 0.02 0.01 0.03 0.04 0.04
0.01 0.02 0.04 0.03 0.01 0.01 0.02 0.03 0.01 0.01 0.02 0.03 0.05 0.03 0.01 0.02 0.02 0.01 0.01 0.03 0.03 0.04 0.06 0.06 0.04 0.02 0.02 0.01 0.01 0.00 0.00 0.00 0.00 0.01 0.01 0.01 0.00 0.00 0.00 0.01 0.01 0.01 0.01 0.01 0.01 0.02 0.04 0.05 0.04
0.03 0.05 0.05 0.04 0.01 0.01 0.03 0.04 0.02 0.01 0.03 0.05 0.05 0.03 0.01 0.01 0.01 0.01 0.01 0.02 0.02 0.03 0.03 0.04 0.04 0.03 0.02 0.01 0.00 0.00 0.00 0.00 0.00 0.01 0.02 0.01 0.01 0.01 0.01 0.01 0.00 0.00 0.00 0.01 0.01 0.02 0.04 0.04 0.03
0.03 0.03 0.04 0.04 0.02 0.02 0.04 0.04 0.02 0.01 0.02 0.04 0.03 0.02 0.01 0.01 0.01 0.01 0.01 0.01 0.01 0.02 0.02 0.02 0.02 0.02 0.01 0.00 0.00 0.00 0.00 0.00 0.00 0.00 0.01 0.01 0.00 0.01 0.01 0.01 0.01 0.00 0.01 0.02 0.01 0.03 0.04 0.04 0.03
0.00 0.01 0.03 0.03 0.01 0.03 0.06 0.05 0.02 0.01 0.01 0.02 0.02 0.02 0.01 0.01 0.01 0.01 0.01 0.01 0.01 0.01 0.01 0.01 0.01 0.01 0.01 0.00 0.00 0.00 0.00 0.00 0.00 0.00 0.01 0.02 0.01 0.01 0.00 0.00 0.00 0.01 0.01 0.02 0.01 0.02 0.02 0.03 0.03
0.00 0.02 0.03 0.02 0.01 0.03 0.05 0.05 0.03 0.02 0.02 0.02 0.02 0.01 0.01 0.00 0.00 0.01 0.01 0.01 0.01 0.01 0.01 0.01 0.00 0.00 0.01 0.00 0.00 0.00 0.00 0.00 0.00 0.00 0.01 0.01 0.00 0.00 0.00 0.00 0.01 0.01 0.02 0.01 0.01 0.02 0.04 0.03 0.03
0.01 0.02 0.02 0.02 0.02 0.02 0.03 0.05 0.04 0.03 0.03 0.03 0.02 0.01 0.00 0.00 0.00 0.01 0.01 0.00 0.00 0.00 0.00 0.01 0.00 0.00 0.00 0.00 0.00 0.00 0.01 0.01 0.01 0.01 0.01 0.01 0.00 0.01 0.01 0.00 0.00 0.01 0.02 0.02 0.02 0.03 0.05 0.05 0.04
0.02 0.01 0.01 0.02 0.03 0.03 0.02 0.06 0.06 0.03 0.02 0.02 0.02 0.01 0.00 0.00 0.00 0.01 0.01 0.01 0.01 0.00 0.01 0.01 0.00 0.00 0.00 0.00 0.01 0.01 0.01 0.01 0.01 0.01 0.01 0.01 0.00 0.00 0.01 0.02 0.01 0.01 0.02 0.03 0.02 0.03 0.05 0.06 0.04
0.01 0.01 0.01 0.03 0.04 0.04 0.03 0.05 0.06 0.03 0.02 0.02 0.01 0.01 0.00 0.00 0.00 0.00 0.01 0.01 0.01 0.01 0.01 0.01 0.01 0.00 0.00 0.01 0.01 0.01 0.01 0.01 0.01 0.01 0.00 0.00 0.00 0.00 0.01 0.02 0.01 0.01 0.03 0.03 0.02 0.02 0.03 0.05 0.04
0.00 0.01 0.01 0.02 0.05 0.06 0.04 0.04 0.06 0.04 0.03 0.03 0.01 0.00 0.00 0.00 0.00 0.00 0.01 0.01 0.01 0.01 0.01 0.01 0.01 0.00 0.00 0.00 0.00 0.00 0.01 0.00 0.00 0.00 0.00 0.00 0.00 0.00 0.00 0.00 0.00 0.00 0.01 0.01 0.01 0.01 0.03 0.03 0.03
0.01 0.02 0.04 0.05 0.06 0.05 0.02 0.02 0.04 0.02 0.01 0.02 0.02 0.01 0.00 0.00 0.00 0.00 0.00 0.01 0.01 0.01 0.01 0.01 0.01 0.01 0.01 0.01 0.00 0.00 0.00 0.00 0.00 0.00 0.00 0.00 0.01 0.01 0.01 0.01 0.01 0.00 0.00 0.00 0.00 0.00 0.01 0.02 0.02
0.01 0.02 0.05 0.05 0.05 0.03 0.01 0.02 0.02 0.00 0.00 0.00 0.01 0.01 0.01 0.00 0.00 0.00 0.00 0.01 0.01 0.00 0.01 0.01 0.00 0.01 0.01 0.01 0.00 0.00 0.01 0.01 0.00 0.00 0.00 0.00 0.00 0.00 0.00 0.00 0.00 0.00 0.00 0.00 0.00 0.00 0.00 0.01 0.02
0.01 0.01 0.02 0.02 0.02 0.03 0.02 0.02 0.01 0.00 0.00 0.00 0.00 0.01 0.00 0.00 0.00 0.00 0.00 0.00 0.00 0.00 0.00 0.00 0.01 0.01 0.01 0.01 0.01 0.01 0.01 0.01 0.00 0.00 0.00 0.00 0.00 0.00 0.00 0.00 0.00 0.00 0.00 0.00 0.00 0.00 0.00 0.00 0.01
0.01 0.01 0.01 0.02 0.04 0.06 0.04 0.04 0.04 0.01 0.01 0.00 0.00 0.00 0.01 0.00 0.00 0.00 0.00 0.00 0.00 0.00 0.00 0.00 0.01 0.01 0.01 0.01 0.01 0.01 0.01 0.01 0.01 0.00 0.00 0.00 0.00 0.00 0.00 0.00 0.00 0.00 0.00 0.00 0.00 0.00 0.00 0.00 0.00
0.01 0.02 0.02 0.02 0.02 0.06 0.07 0.05 0.02 0.02 0.01 0.00 0.00 0.00 0.00 0.00 0.00 0.00 0.00 0.00 0.00 0.00 0.00 0.00 0.00 0.00 0.00 0.00 0.01 0.01 0.01 0.00 0.00 0.00 0.00 0.00 0.00 0.00 0.00 0.00 0.00 0.00 0.00 0.00 0.00 0.00 0.00 0.00 0.00
0.00 0.01 0.02 0.05 0.04 0.04 0.05 0.05 0.01 0.01 0.01 0.00 0.00 0.00 0.00 0.00 0.00 0.00 0.00 0.00 0.00 0.00 0.00 0.00 0.00 0.00 0.00 0.00 0.01 0.01 0.01 0.01 0.01 0.00 0.00 0.00 0.00 0.00 0.00 0.00 0.00 0.00 0.00 0.00 0.00 0.00 0.00 0.00 0.00
MSLP
1008.76 1009.59 1010.55 1011.53 1012.39 1012.99 1013.31 1013.32 1013.11 1012.78 1012.47 1012.30 1012.34 1012.61 1013.05 1013.59 1014.09 1014.46 1014.63 1014.57 1014.34 1013.99 1013.63 1013.34 1013.17 1013.13 1013.18 1013.27 1013.35 1013.37 1013.33 1013.24 1013.16 1013.12 1013.17 1013.31 1013.54 1013.80 1014.06 1014.26 1014.39 1014.43 1014.43 1014.42 1014.43 1014.48 1014.57 1014.69 1014.80
1009.03 1009.99 1011.02 1011.97 1012.72 1013.17 1013.30 1013.15 1012.82 1012.43 1012.13 1012.03 1012.16 1012.52 1013.04 1013.60 1014.10 1014.42 1014.53 1014.44 1014.19 1013.88 1013.59 1013.39 1013.32 1013.37 1013.48 1013.61 1013.70 1013.71 1013.65 1013.55 1013.46 1013.42 1013.46 1013.60 1013.80 1014.03 1014.24 1014.39 1014.47 1014.49 1014.47 1014.46 1014.48 1014.54 1014.64 1014.74 1014.82
1009.34 1010.40 1011.46 1012.36 1012.98 1013.27 1013.22 1012.92 1012.48 1012.07 1011.80 1011.77 1011.99 1012.43 1012.99 1013.56 1014.01 1014.28 1014.33 1014.19 1013.95 1013.68 1013.47 1013.38 1013.42 1013.57 1013.76 1013.93 1014.03 1014.04 1013.98 1013.87 1013.77 1013.72 1013.76 1013.88 1014.04 1014.22 1014.37 1014.46 1014.49 1014.48 1014.46 1014.46 1014.50 1014.58 1014.68 1014.77 1014.81
1009.68 1010.80 1011.84 1012.66 1013.15 1013.28 1013.08 1012.67 1012.17 1011.76 1011.55 1011.59 1011.90 1012.39 1012.97 1013.51 1013.90 1014.09 1014.07 1013.90 1013.66 1013.44 1013.32 1013.34 1013.49 1013.73 1013.98 1014.20 1014.32 1014.33 1014.26 1014.15 1014.05 1014.00 1014.02 1014.11 1014.24 1014.36 1014.45 1014.48 1014.47 1014.44 1014.42 1014.43 1014.50 1014.60 1014.71 1014.79 1014.82
1010.01 1011.15 1012.14 1012.86 1013.22 1013.22 1012.92 1012.44 1011.93 1011.56 1011.41 1011.54 1011.91 1012.44 1013.01 1013.49 1013.80 1013.91 1013.82 1013.62 1013.39 1013.23 1013.19 1013.31 1013.55 1013.86 1014.17 1014.40 1014.53 1014.53 1014.46 1014.34 1014.24 1014.19 1014.21 1014.28 1014.38 1014.46 1014.51 1014.50 1014.46 1014.41 1014.39 1014.41 1014.49 1014.61 1014.73 1014.81 1014.82
1010.32 1011.42 1012.34 1012.96 1013.21 1013.11 1012.74 1012.25 1011.78 1011.47 1011.42 1011.62 1012.05 1012.59 1013.12 1013.53 1013.76 1013.78 1013.63 1013.40 1013.19 1013.08 1013.12 1013.31 1013.62 1013.97 1014.29 1014.52 1014.62 1014.61 1014.52 1014.39 1014.30 1014.27 1014.29 1014.37 1014.46 1014.52 1014.54 1014.51 1014.44 1014.38 1014.36 1014.39 1014.48 1014.61 1014.72 1014.80 1014.80
1010.59 1011.62 1012.44 1012.95 1013.11 1012.95 1012.57 1012.11 1011.71 1011.50 1011.54 1011.83 1012.29 1012.82 1013.30 1013.64 1013.77 1013.71 1013.51 1013.27 1013.08 1013.02 1013.11 1013.36 1013.70 1014.06 1014.36 1014.55 1014.60 1014.55 1014.43 1014.30 1014.22 1014.21 1014.27 1014.37 1014.47 1014.54 1014.55 1014.51 1014.44 1014.37 1014.34 1014.37 1014.45 1014.57 1014.67 1014.74 1014.74
1010.82 1011.75 1012.46 1012.86 1012.95 1012.77 1012.41 1012.02 1011.72 1011.62 1011.76 1012.10 1012.59 1013.09 1013.51 1013.77 1013.82 1013.69 1013.46 1013.22 1013.05 1013.03 1013.17 1013.44 1013.78 1014.12 1014.37 1014.49 1014.48 1014.38 1014.23 1014.10 1014.03 1014.05 1014.15 1014.29 1014.43 1014.52 1014.55 1014.51 1014.44 1014.36 1014.32 1014.33 1014.40 1014.49 1014.59 1014.65 1014.65
1011.01 1011.82 1012.41 1012.73 1012.77 1012.58 1012.28 1011.97 1011.78 1011.79 1012.02 1012.41 1012.89 1013.35 1013.71 1013.89 1013.87 1013.70 1013.45 1013.22 1013.09 1013.10 1013.27 1013.55 1013.87 1014.16 1014.34 1014.39 1014.31 1014.15 1013.97 1013.84 1013.79 1013.85 1013.99 1014.18 1014.36 1014.49 1014.55 1014.53 1014.46 1014.38 1014.33 1014.32 1014.35 1014.42 1014.50 1014.55 1014.56
1011.19 1011.87 1012.35 1012.59 1012.59 1012.43 1012.18 1011.97 1011.89 1011.99 1012.27 1012.69 1013.15 1013.57 1013.85 1013.96 1013.89 1013.69 1013.44 1013.23 1013.14 1013.19 1013.38 1013.66 1013.95 1014.18 1014.29 1014.27 1014.14 1013.93 1013.73 1013.60 1013.58 1013.67 1013.86 1014.09 1014.32 1014.49 1014.57 1014.57 1014.52 1014.44 1014.38 1014.35 1014.36 1014.41 1014.46 1014.50 1014.52
1011.36 1011.93 1012.31 1012.48 1012.46 1012.32 1012.14 1012.02 1012.02 1012.19 1012.51 1012.92 1013.34 1013.70 1013.92 1013.96 1013.85 1013.64 1013.41 1013.24 1013.18 1013.27 1013.47 1013.74 1014.01 1014.20 1014.26 1014.19 1014.02 1013.79 1013.59 1013.47 1013.46 1013.59 1013.81 1014.08 1014.33 1014.53 1014.65 1014.68 1014.64 1014.58 1014.51 1014.48 1014.47 1014.50 1014.54 1014.57 1014.58
1011.55 1012.02 1012.31 1012.43 1012.41 1012.29 1012.17 1012.11 1012.17 1012.37 1012.70 1013.08 1013.45 1013.74 1013.89 1013.89 1013.75 1013.54 1013.33 1013.20 1013.18 1013.30 1013.52 1013.79 1014.05 1014.22 1014.26 1014.17 1014.00 1013.78 1013.59 1013.49 1013.51 1013.65 1013.89 1014.17 1014.44 1014.66 1014.80 1014.85 1014.84 1014.80 1014.76 1014.73 1014.73 1014.75 1014.78 1014.80 1014.80
1011.78 1012.16 1012.39 1012.47 1012.43 1012.34 1012.26 1012.24 1012.34 1012.54 1012.84 1013.17 1013.47 1013.68 1013.78 1013.73 1013.58 1013.39 1013.21 1013.11 1013.13 1013.28 1013.52 1013.80 1014.05 1014.23 1014.29 1014.23 1014.09 1013.92 1013.77 1013.70 1013.74 1013.89 1014.12 1014.39 1014.66 1014.87 1015.03 1015.10 1015.13 1015.12 1015.11 1015.11 1015.13 1015.16 1015.18 1015.19 1015.18
1012.06 1012.36 1012.53 1012.59 1012.55 1012.48 1012.42 1012.42 1012.51 1012.69 1012.93 1013.19 1013.41 1013.56 1013.59 1013.52 1013.37 1013.19 1013.04 1012.98 1013.03 1013.19 1013.45 1013.75 1014.03 1014.24 1014.35 1014.36 1014.30 1014.20 1014.11 1014.09 1014.14 1014.28 1014.49 1014.72 1014.96 1015.16 1015.31 1015.40 1015.47 1015.51 1015.54 1015.58 1015.63 1015.68 1015.71 1015.72 1015.69
1012.38 1012.62 1012.75 1012.78 1012.75 1012.69 1012.64 1012.63 1012.69 1012.82 1012.99 1013.17 1013.31 1013.39 1013.38 1013.29 1013.14 1012.98 1012.86 1012.83 1012.90 1013.08 1013.35 1013.66 1013.98 1014.24 1014.43 1014.54 1014.58 1014.58 1014.57 1014.59 1014.66 1014.78 1014.95 1015.13 1015.31 1015.47 1015.60 1015.71 1015.81 1015.90 1015.99 1016.08 1016.17 1016.25 1016.29 1016.30 1016.25
1012.72 1012.91 1013.02 1013.04 1013.01 1012.95 1012.89 1012.86 1012.88 1012.94 1013.03 1013.11 1013.18 1013.20 1013.16 1013.06 1012.93 1012.79 1012.70 1012.69 1012.77 1012.96 1013.23 1013.56 1013.91 1014.24 1014.52 1014.73 1014.89 1014.99 1015.07 1015.15 1015.23 1015.33 1015.43 1015.55 1015.66 1015.78 1015.88 1015.99 1016.11 1016.24 1016.39 1016.53 1016.67 1016.78 1016.84 1016.84 1016.78
1013.06 1013.22 1013.30 1013.33 1013.30 1013.24 1013.17 1013.11 1013.07 1013.05 1013.04 1013.04 1013.04 1013.01 1012.95 1012.86 1012.75 1012.65 1012.59 1012.59 1012.68 1012.87 1013.14 1013.47 1013.85 1014.23 1014.60 1014.92 1015.19 1015.40 1015.57 1015.69 1015.78 1015.85 1015.90 1015.95 1015.99 1016.04 1016.12 1016.22 1016.35 1016.51 1016.69 1016.88 1017.05 1017.18 1017.27 1017.28 1017.21
1013.38 1013.52 1013.60 1013.64 1013.62 1013.57 1013.48 1013.37 1013.26 1013.15 1013.05 1012.97 1012.90 1012.84 1012.77 1012.70 1012.63 1012.57 1012.55 1012.57 1012.67 1012.84 1013.10 1013.43 1013.82 1014.25 1014.68 1015.09 1015.46 1015.77 1016.01 1016.17 1016.27 1016.32 1016.32 1016.30 1016.27 1016.27 1016.30 1016.38 1016.51 1016.68 1016.89 1017.10 1017.29 1017.44 1017.54 1017.56 1017.51
1013.67 1013.81 1013.90 1013.96 1013.96 1013.91 1013.80 1013.64 1013.46 1013.26 1013.07 1012.90 1012.77 1012.68 1012.61 1012.58 1012.55 1012.55 1012.57 1012.63 1012.73 1012.90 1013.14 1013.46 1013.84 1014.29 1014.76 1015.24 1015.68 1016.06 1016.36 1016.57 1016.67 1016.70 1016.66 1016.59 1016.51 1016.45 1016.45 1016.50 1016.61 1016.79 1016.99 1017.21 1017.40 1017.56 1017.66 1017.70 1017.67
1013.93 1014.08 1014.21 1014.29 1014.32 1014.27 1014.14 1013.93 1013.67 1013.38 1013.09 1012.84 1012.66 1012.54 1012.48 1012.48 1012.52 1012.58 1012.66 1012.75 1012.87 1013.03 1013.26 1013.55 1013.93 1014.37 1014.86 1015.37 1015.85 1016.28 1016.62 1016.86 1016.98 1016.99 1016.93 1016.83 1016.71 1016.62 1016.58 1016.61 1016.71 1016.86 1017.05 1017.25 1017.43 1017.58 1017.68 1017.73 1017.73
1014.17 1014.35 1014.52 1014.65 1014.71 1014.66 1014.51 1014.24 1013.90 1013.52 1013.14 1012.80 1012.56 1012.41 1012.36 1012.40 1012.49 1012.62 1012.76 1012.90 1013.05 1013.22 1013.43 1013.71 1014.06 1014.48 1014.97 1015.48 1015.98 1016.43 1016.79 1017.05 1017.18 1017.20 1017.14 1017.02 1016.89 1016.78 1016.73 1016.74 1016.82 1016.95 1017.11 1017.28 1017.44 1017.57 1017.66 1017.71 1017.74
1014.41 1014.64 1014.86 1015.03 1015.12 1015.08 1014.90 1014.58 1014.16 1013.68 1013.20 1012.79 1012.48 1012.30 1012.25 1012.31 1012.46 1012.64 1012.84 1013.03 1013.22 1013.41 1013.62 1013.88 1014.21 1014.60 1015.06 1015.56 1016.05 1016.50 1016.87 1017.14 1017.28 1017.32 1017.27 1017.17 1017.05 1016.95 1016.90 1016.90 1016.97 1017.08 1017.21 1017.35 1017.48 1017.58 1017.65 1017.70 1017.75
1014.65 1014.93 1015.21 1015.43 1015.53 1015.49 1015.29 1014.92 1014.42 1013.86 1013.29 1012.79 1012.42 1012.20 1012.13 1012.20 1012.38 1012.61 1012.86 1013.10 1013.33 1013.54 1013.77 1014.02 1014.33 1014.70 1015.13 1015.59 1016.06 1016.50 1016.86 1017.13 1017.29 1017.35 1017.33 1017.25 1017.17 1017.09 1017.06 1017.08 1017.15 1017.24 1017.36 1017.47 1017.57 1017.64 1017.69 1017.73 1017.78
1014.89 1015.23 1015.55 1015.80 1015.93 1015.89 1015.66 1015.24 1014.68 1014.04 1013.40 1012.82 1012.38 1012.11 1012.01 1012.07 1012.25 1012.51 1012.80 1013.08 1013.34 1013.59 1013.83 1014.09 1014.39 1014.74 1015.14 1015.57 1016.01 1016.42 1016.77 1017.03 1017.20 1017.28 1017.29 1017.26 1017.22 1017.19 1017.20 1017.24 1017.33 1017.43 1017.53 1017.63 1017.70 1017.75 1017.78 1017.81 1017.85
1015.13 1015.51 1015.86 1016.14 1016.27 1016.21 1015.96 1015.50 1014.90 1014.20 1013.50 1012.86 1012.36 1012.03 1011.89 1011.91 1012.08 1012.34 1012.64 1012.95 1013.24 1013.52 1013.78 1014.06 1014.36 1014.71 1015.09 1015.49 1015.90 1016.27 1016.60 1016.85 1017.03 1017.12 1017.17 1017.18 1017.19 1017.21 1017.27 1017.35 1017.47 1017.59 1017.70 1017.79 1017.85 1017.89 1017.91 1017.92 1017.95
1015.32 1015.73 1016.09 1016.37 1016.49 1016.42 1016.15 1015.67 1015.04 1014.32 1013.58 1012.91 1012.35 1011.97 1011.78 1011.76 1011.88 1012.11 1012.40 1012.71 1013.03 1013.33 1013.62 1013.93 1014.25 1014.59 1014.97 1015.35 1015.73 1016.08 1016.38 1016.61 1016.78 1016.89 1016.97 1017.02 1017.07 1017.15 1017.26 1017.39 1017.54 1017.69 1017.82 1017.92 1017.99 1018.03 1018.04 1018.05 1018.07
1015.43 1015.85 1016.21 1016.46 1016.57 1016.48 1016.19 1015.71 1015.08 1014.36 1013.62 1012.93 1012.35 1011.93 1011.68 1011.61 1011.68 1011.86 1012.11 1012.41 1012.73 1013.05 1013.38 1013.71 1014.06 1014.42 1014.80 1015.18 1015.54 1015.86 1016.14 1016.35 1016.51 1016.63 1016.72 1016.80 1016.90 1017.02 1017.17 1017.35 1017.54 1017.73 1017.89 1018.02 1018.10 1018.15 1018.17 1018.18 1018.20
1015.45 1015.86 1016.19 1016.40 1016.47 1016.35 1016.06 1015.59 1014.99 1014.30 1013.59 1012.93 1012.35 1011.91 1011.62 1011.48 1011.49 1011.61 1011.82 1012.08 1012.39 1012.72 1013.08 1013.45 1013.84 1014.23 1014.62 1015.01 1015.36 1015.66 1015.92 1016.12 1016.27 1016.39 1016.49 1016.59 1016.72 1016.88 1017.07 1017.28 1017.51 1017.73 1017.92 1018.08 1018.19 1018.26 1018.30 1018.32 1018.34
1015.37 1015.74 1016.02 1016.18 1016.20 1016.05 1015.75 1015.31 1014.76 1014.14 1013.49 1012.88 1012.34 1011.90 1011.58 1011.40 1011.34 1011.40 1011.54 1011.77 1012.05 1012.39 1012.77 1013.18 1013.60 1014.04 1014.47 1014.86 1015.22 1015.53 1015.77 1015.96 1016.11 1016.22 1016.33 1016.45 1016.60 1016.78 1017.00 1017.24 1017.49 1017.73 1017.96 1018.14 1018.28 1018.37 1018.43 1018.48 1018.52
1015.20 1015.52 1015.73 1015.82 1015.78 1015.60 1015.30 1014.89 1014.40 1013.86 1013.31 1012.78 1012.29 1011.88 1011.56 1011.34 1011.23 1011.22 1011.31 1011.49 1011.75 1012.09 1012.48 1012.92 1013.40 1013.87 1014.34 1014.76 1015.14 1015.45 1015.71 1015.90 1016.05 1016.17 1016.29 1016.43 1016.59 1016.79 1017.02 1017.28 1017.54 1017.80 1018.03 1018.23 1018.39 1018.51 1018.60 1018.66 1018.72
Thickness
5807 5809 5808 5795 5774 5762 5759 5766 5775 5775 5778 5785 5788 5783 5770 5761 5752 5740 5759 5771 5771 5767 5763 5760 5759 5759 5758 5757 5757 5756 5755 5754 5753 5753 5753 5753 5752 5752 5752 5752 5752 5752 5753 5753 5753 5754 5754 5754 5755
5810 5811 5800 5784 5763 5751 5754 5767 5769 5774 5782 5789 5787 5781 5770 5762 5764 5760 5763 5769 5770 5766 5762 5759 5758 5757 5756 5755 5755 5754 5753 5752 5751 5751 5750 5750 5750 5750 5750 5749 5750 5750 5750 5750 5750 5751 5751 5752 5752
5810 5810 5789 5775 5764 5756 5755 5767 5772 5779 5788 5787 5779 5777 5767 5761 5764 5762 5767 5771 5769 5764 5760 5757 5756 5755 5754 5753 5753 5752 5751 5750 5749 5749 5748 5748 5747 5747 5747 5747 5747 5747 5747 5747 5747 5748 5748 5749 5749
5808 5798 5788 5771 5762 5768 5769 5772 5778 5778 5781 5786 5779 5766 5763 5769 5768 5768 5770 5770 5767 5763 5759 5755 5754 5753 5752 5751 5751 5750 5749 5748 5747 5747 5746 5746 5745 5745 5745 5744 5744 5744 5744 5744 5744 5745 5745 5746 5746
5805 5787 5771 5763 5764 5772 5778 5783 5783 5774 5774 5777 5774 5757 5753 5766 5771 5771 5770 5769 5766 5763 5759 5755 5753 5752 5751 5750 5748 5748 5747 5746 5746 5745 5744 5744 5743 5743 5742 5742 5742 5742 5742 5741 5741 5742 5742 5743 5744
5789 5783 5761 5754 5761 5770 5778 5784 5781 5773 5772 5774 5769 5757 5751 5764 5765 5766 5768 5767 5766 5762 5759 5754 5752 5750 5749 5748 5746 5745 5745 5744 5744 5743 5743 5742 5742 5741 5740 5740 5739 5739 5739 5739 5739 5739 5740 5740 5741
5781 5774 5762 5760 5758 5762 5773 5782 5777 5771 5767 5770 5773 5755 5751 5759 5763 5766 5766 5765 5764 5763 5759 5755 5752 5749 5748 5746 5745 5744 5743 5743 5742 5742 5741 5740 5740 5739 5738 5738 5737 5736 5736 5736 5736 5736 5737 5737 5738
5791 5776 5765 5762 5757 5758 5776 5779 5778 5773 5767 5778 5777 5756 5748 5756 5764 5764 5764 5763 5762 5761 5759 5757 5754 5751 5748 5746 5744 5744 5743 5742 5742 5741 5740 5740 5739 5738 5737 5735 5734 5734 5733 5733 5733 5733 5734 5735 5736
5794 5767 5755 5760 5759 5762 5776 5773 5775 5781 5774 5772 5772 5766 5762 5764 5763 5760 5757 5757 5757 5758 5758 5757 5755 5752 5750 5748 5745 5744 5743 5742 5741 5741 5740 5739 5738 5737 5735 5734 5733 5732 5731 5731 5731 5731 5732 5732 5733
5784 5757 5760 5772 5773 5770 5773 5771 5773 5770 5762 5758 5758 5761 5763 5762 5759 5755 5753 5751 5752 5753 5756 5756 5755 5752 5750 5749 5746 5744 5744 5742 5742 5742 5740 5739 5738 5736 5734 5732 5731 5730 5730 5729 5729 5730 5730 5731 5731
5780 5764 5770 5775 5779 5777 5771 5770 5774 5764 5752 5754 5752 5753 5756 5757 5755 5754 5753 5752 5752 5753 5754 5755 5754 5752 5750 5748 5746 5744 5744 5742 5742 5741 5740 5738 5737 5735 5733 5731 5730 5729 5728 5728 5728 5728 5729 5729 5730
5774 5772 5774 5773 5777 5774 5769 5767 5765 5761 5757 5763 5761 5758 5754 5752 5752 5752 5751 5752 5751 5751 5751 5753 5753 5751 5749 5746 5745 5743 5742 5741 5740 5739 5739 5737 5735 5734 5732 5731 5729 5728 5728 5727 5726 5726 5727 5727 5727
5768 5767 5772 5773 5773 5772 5769 5762 5759 5757 5763 5764 5760 5756 5752 5751 5752 5753 5754 5752 5751 5748 5749 5750 5751 5749 5747 5745 5743 5742 5740 5739 5738 5738 5737 5736 5734 5732 5731 5730 5728 5727 5726 5725 5724 5724 5724 5724 5723
5769 5768 5768 5769 5768 5768 5761 5758 5756 5753 5761 5758 5753 5750 5749 5749 5750 5750 5750 5749 5748 5747 5747 5747 5748 5747 5746 5744 5742 5740 5739 5738 5737 5737 5736 5735 5733 5731 5730 5728 5726 5725 5724 5723 5722 5721 5720 5720 5719
5773 5761 5759 5763 5763 5762 5758 5745 5749 5755 5758 5751 5749 5748 5747 5747 5747 5747 5748 5748 5748 5747 5746 5744 5745 5744 5743 5742 5740 5739 5738 5737 5736 5735 5734 5734 5732 5730 5728 5726 5725 5724 5723 5721 5720 5719 5718 5717 5716
5765 5752 5740 5754 5761 5760 5748 5729 5747 5757 5753 5745 5744 5744 5743 5744 5746 5747 5749 5748 5747 5746 5744 5743 5743 5742 5740 5739 5738 5737 5736 5735 5734 5733 5732 5732 5731 5729 5726 5724 5723 5722 5721 5719 5717 5715 5713 5712 5711
5747 5738 5737 5746 5760 5757 5746 5732 5745 5755 5749 5742 5741 5741 5741 5742 5744 5747 5748 5747 5747 5745 5743 5740 5740 5739 5737 5736 5736 5735 5734 5733 5732 5731 5730 5730 5729 5727 5725 5723 5722 5720 5719 5717 5715 5712 5710 5708 5708
5737 5740 5740 5739 5752 5751 5741 5737 5744 5750 5747 5741 5740 5740 5740 5740 5741 5746 5746 5746 5745 5744 5742 5739 5737 5736 5735 5734 5734 5732 5731 5731 5730 5728 5727 5726 5726 5725 5723 5721 5720 5719 5716 5714 5712 5709 5709 5708 5707
5751 5743 5738 5744 5756 5746 5738 5737 5742 5746 5744 5741 5739 5739 5739 5740 5744 5745 5744 5744 5742 5741 5738 5736 5735 5734 5733 5730 5729 5727 5726 5727 5727 5726 5725 5724 5724 5723 5722 5720 5719 5716 5714 5712 5710 5708 5706 5705 5706
5749 5740 5736 5743 5754 5746 5736 5736 5744 5746 5744 5744 5742 5740 5740 5740 5741 5741 5741 5740 5739 5738 5736 5735 5734 5733 5731 5730 5729 5728 5726 5726 5725 5724 5723 5722 5721 5721 5720 5719 5717 5715 5712 5710 5709 5707 5704 5704 5705
5743 5738 5735 5735 5744 5748 5737 5729 5737 5745 5747 5745 5745 5744 5743 5741 5740 5739 5739 5738 5737 5735 5735 5735 5734 5732 5731 5730 5728 5727 5725 5723 5721 5720 5720 5720 5719 5719 5718 5717 5716 5714 5712 5709 5707 5706 5703 5700 5703
5734 5746 5742 5737 5729 5726 5732 5711 5729 5739 5738 5739 5740 5741 5742 5743 5742 5740 5738 5736 5736 5735 5736 5735 5733 5732 5731 5729 5726 5723 5718 5716 5718 5719 5718 5718 5718 5717 5717 5716 5714 5713 5711 5709 5707 5706 5704 5702 5699
5740 5748 5742 5737 5729 5723 5730 5718 5723 5737 5730 5734 5738 5740 5742 5743 5742 5740 5739 5737 5736 5735 5734 5733 5732 5730 5729 5727 5725 5722 5720 5719 5720 5720 5718 5717 5716 5716 5715 5714 5713 5712 5710 5708 5707 5705 5704 5702 5700
5746 5742 5739 5736 5726 5708 5727 5720 5716 5730 5734 5736 5740 5742 5743 5744 5743 5741 5740 5737 5735 5733 5731 5730 5728 5726 5727 5726 5724 5722 5719 5718 5717 5716 5715 5715 5715 5715 5714 5713 5712 5711 5709 5708 5707 5705 5704 5702 5701
5738 5721 5707 5704 5701 5709 5737 5726 5724 5742 5748 5745 5743 5744 5745 5744 5742 5739 5736 5733 5731 5729 5728 5727 5726 5724 5725 5724 5724 5722 5720 5719 5717 5715 5714 5713 5713 5712 5713 5713 5711 5710 5709 5707 5707 5705 5703 5702 5700
5731 5724 5702 5693 5700 5712 5730 5723 5734 5753 5755 5754 5750 5747 5746 5744 5742 5739 5736 5733 5730 5728 5727 5726 5724 5723 5724 5723 5723 5723 5721 5719 5718 5717 5716 5715 5713 5713 5713 5712 5711 5709 5708 5707 5706 5704 5703 5702 5700
5728 5726 5732 5716 5714 5710 5720 5729 5739 5751 5749 5749 5747 5744 5742 5742 5740 5738 5737 5734 5731 5728 5727 5726 5725 5723 5723 5723 5723 5722 5721 5719 5718 5718 5717 5716 5715 5714 5713 5712 5710 5708 5707 5706 5704 5702 5701 5700 5699
5738 5733 5724 5710 5697 5694 5709 5716 5715 5727 5733 5741 5741 5740 5740 5741 5740 5738 5736 5734 5732 5730 5728 5727 5726 5724 5723 5723 5722 5721 5720 5719 5718 5717 5716 5715 5714 5713 5712 5711 5709 5707 5705 5704 5702 5700 5700 5698 5697
5728 5725 5722 5717 5714 5696 5691 5705 5735 5734 5737 5737 5740 5741 5740 5739 5738 5736 5734 5734 5732 5730 5728 5726 5725 5724 5723 5723 5722 5720 5719 5718 5718 5716 5715 5714 5713 5712 5710 5709 5708 5706 5704 5702 5700 5699 5698 5696 5695
5735 5729 5722 5704 5705 5711 5700 5705 5745 5744 5743 5741 5741 5741 5741 5740 5738 5735 5734 5733 5730 5729 5728 5727 5726 5724 5723 5723 5721 5719 5718 5717 5715 5714 5714 5713 5712 5711 5710 5708 5706 5704 5702 5701 5698 5696 5695 5694 5692